Time,TemperatureF,DewpointF,PressureIn,WindDirection,WindDirectionDegrees,WindSpeedMPH,WindSpeedGustMPH,Humidity,HourlyPrecipIn,Conditions,Clouds,dailyrainin,SoftwareType,DateUTC
2013-03-28 00:00:00,37.1,32.4,30.19,WNW,296,0.0,0.0,83,0.00,,,0.00,Wunderground v.1.15,2013-03-28 04:00:00,
2013-03-28 00:10:00,36.9,32.2,30.19,WNW,296,0.0,0.0,83,0.00,,,0.00,Wunderground v.1.15,2013-03-28 04:10:00,
2013-03-28 00:15:00,36.7,32.0,30.19,WNW,296,0.0,0.0,83,0.00,,,0.00,Wunderground v.1.15,2013-03-28 04:15:00,
2013-03-28 00:20:00,36.6,32.2,30.19,WNW,296,0.0,0.0,84,0.00,,,0.00,Wunderground v.1.15,2013-03-28 04:20:00,
2013-03-28 00:25:00,36.6,32.8,30.19,WNW,296,0.0,0.0,86,0.00,,,0.00,Wunderground v.1.15,2013-03-28 04:25:00,
2013-03-28 00:35:00,36.6,32.8,30.19,WNW,296,0.0,0.0,86,0.00,,,0.00,Wunderground v.1.15,2013-03-28 04:35:00,
2013-03-28 00:45:00,36.4,32.6,30.19,WNW,296,0.0,0.0,86,0.00,,,0.00,Wunderground v.1.15,2013-03-28 04:45:00,
2013-03-28 00:50:00,36.2,32.4,30.19,WNW,296,0.0,0.0,86,0.00,,,0.00,Wunderground v.1.15,2013-03-28 04:50:00,
2013-03-28 01:00:00,35.9,32.4,30.19,WNW,296,0.0,0.0,87,0.00,,,0.00,Wunderground v.1.15,2013-03-28 05:00:00,
2013-03-28 01:10:00,35.6,32.1,30.19,WNW,296,0.0,0.0,87,0.00,,,0.00,Wunderground v.1.15,2013-03-28 05:10:00,
2013-03-28 01:15:00,35.5,32.0,30.19,WNW,296,0.0,0.0,87,0.00,,,0.00,Wunderground v.1.15,2013-03-28 05:15:00,
2013-03-28 01:25:00,35.4,32.2,30.19,WNW,296,0.0,0.0,88,0.00,,,0.00,Wunderground v.1.15,2013-03-28 05:25:00,
2013-03-28 01:35:00,35.4,32.2,30.20,WNW,296,0.0,0.0,88,0.00,,,0.00,Wunderground v.1.15,2013-03-28 05:35:00,
2013-03-28 01:40:00,35.3,32.1,30.20,WNW,296,0.0,0.0,88,0.00,,,0.00,Wunderground v.1.15,2013-03-28 05:40:00,
2013-03-28 01:50:00,35.1,31.9,30.20,WNW,296,0.0,0.0,88,0.00,,,0.00,Wunderground v.1.15,2013-03-28 05:50:00,
2013-03-28 02:00:00,35.0,31.8,30.20,WNW,296,0.0,0.0,88,0.00,,,0.00,Wunderground v.1.15,2013-03-28 06:00:00,
2013-03-28 02:05:00,35.0,31.8,30.20,WNW,296,0.0,0.0,88,0.00,,,0.00,Wunderground v.1.15,2013-03-28 06:05:00,
2013-03-28 02:15:00,34.9,31.4,30.20,WNW,296,0.0,0.0,87,0.00,,,0.00,Wunderground v.1.15,2013-03-28 06:15:00,
2013-03-28 02:20:00,34.8,31.3,30.20,WNW,296,0.0,0.0,87,0.00,,,0.00,Wunderground v.1.15,2013-03-28 06:20:00,
2013-03-28 02:30:00,34.5,30.7,30.20,WNW,296,0.0,0.0,86,0.00,,,0.00,Wunderground v.1.15,2013-03-28 06:30:00,
2013-03-28 02:40:00,34.3,30.3,30.20,WNW,296,0.0,0.0,85,0.00,,,0.00,Wunderground v.1.15,2013-03-28 06:40:00,
2013-03-28 02:45:00,34.3,30.3,30.20,WNW,296,0.0,0.0,85,0.00,,,0.00,Wunderground v.1.15,2013-03-28 06:45:00,
2013-03-28 02:55:00,34.1,30.4,30.20,WNW,296,0.0,0.0,86,0.00,,,0.00,Wunderground v.1.15,2013-03-28 06:55:00,
2013-03-28 03:00:00,34.0,30.3,30.20,WNW,296,0.0,0.0,86,0.00,,,0.00,Wunderground v.1.15,2013-03-28 07:00:00,
2013-03-28 03:10:00,33.9,30.2,30.20,WNW,296,0.0,0.0,86,0.00,,,0.00,Wunderground v.1.15,2013-03-28 07:10:00,
2013-03-28 03:20:00,33.9,30.2,30.19,WNW,296,0.0,0.0,86,0.00,,,0.00,Wunderground v.1.15,2013-03-28 07:20:00,
2013-03-28 03:30:00,34.0,30.3,30.19,WNW,296,0.0,0.0,86,0.00,,,0.00,Wunderground v.1.15,2013-03-28 07:30:00,
2013-03-28 03:35:00,33.9,30.4,30.19,WNW,296,0.0,0.0,87,0.00,,,0.00,Wunderground v.1.15,2013-03-28 07:35:00,
2013-03-28 03:45:00,33.8,30.1,30.19,WNW,296,0.0,0.0,86,0.00,,,0.00,Wunderground v.1.15,2013-03-28 07:45:00,
2013-03-28 03:55:00,33.5,29.8,30.19,WNW,296,0.0,0.0,86,0.00,,,0.00,Wunderground v.1.15,2013-03-28 07:55:00,
2013-03-28 04:00:00,33.5,29.8,30.19,WNW,296,0.0,0.0,86,0.00,,,0.00,Wunderground v.1.15,2013-03-28 08:00:00,
2013-03-28 04:10:00,33.4,29.4,30.19,WNW,296,0.0,0.0,85,0.00,,,0.00,Wunderground v.1.15,2013-03-28 08:10:00,
2013-03-28 04:20:00,33.1,29.1,30.19,WNW,296,0.0,0.0,85,0.00,,,0.00,Wunderground v.1.15,2013-03-28 08:20:00,
2013-03-28 04:25:00,32.9,28.9,30.19,WNW,296,0.0,0.0,85,0.00,,,0.00,Wunderground v.1.15,2013-03-28 08:25:00,
2013-03-28 04:35:00,32.7,29.3,30.19,WNW,296,0.0,0.0,87,0.00,,,0.00,Wunderground v.1.15,2013-03-28 08:35:00,
2013-03-28 04:40:00,32.6,29.2,30.19,WNW,296,0.0,0.0,87,0.00,,,0.00,Wunderground v.1.15,2013-03-28 08:40:00,
2013-03-28 04:50:00,32.4,29.0,30.19,WNW,296,0.0,0.0,87,0.00,,,0.00,Wunderground v.1.15,2013-03-28 08:50:00,
2013-03-28 05:00:00,32.2,29.0,30.19,WNW,296,0.0,0.0,88,0.00,,,0.00,Wunderground v.1.15,2013-03-28 09:00:00,
2013-03-28 05:05:00,32.1,28.9,30.19,WNW,296,0.0,0.0,88,0.00,,,0.00,Wunderground v.1.15,2013-03-28 09:05:00,
2013-03-28 05:15:00,31.9,28.8,30.19,WNW,296,0.0,0.0,88,0.00,,,0.00,Wunderground v.1.15,2013-03-28 09:15:00,
2013-03-28 05:25:00,31.8,28.7,30.19,WNW,296,0.0,0.0,88,0.00,,,0.00,Wunderground v.1.15,2013-03-28 09:25:00,
2013-03-28 05:30:00,31.7,28.3,30.19,WNW,296,0.0,0.0,87,0.00,,,0.00,Wunderground v.1.15,2013-03-28 09:30:00,
2013-03-28 05:40:00,31.5,28.1,30.19,WNW,296,0.0,0.0,87,0.00,,,0.00,Wunderground v.1.15,2013-03-28 09:40:00,
2013-03-28 05:50:00,31.4,27.7,30.19,WNW,296,0.0,0.0,86,0.00,,,0.00,Wunderground v.1.15,2013-03-28 09:50:00,
2013-03-28 05:55:00,31.4,27.4,30.20,WNW,296,0.0,0.0,85,0.00,,,0.00,Wunderground v.1.15,2013-03-28 09:55:00,
2013-03-28 06:05:00,31.5,27.8,30.20,WNW,296,0.0,0.0,86,0.00,,,0.00,Wunderground v.1.15,2013-03-28 10:05:00,
2013-03-28 06:10:00,31.6,28.2,30.20,WNW,296,0.0,0.0,87,0.00,,,0.00,Wunderground v.1.15,2013-03-28 10:10:00,
2013-03-28 06:20:00,31.4,28.0,30.20,WNW,296,0.0,0.0,87,0.00,,,0.00,Wunderground v.1.15,2013-03-28 10:20:00,
2013-03-28 06:30:00,31.2,27.8,30.20,WNW,296,0.0,0.0,87,0.00,,,0.00,Wunderground v.1.15,2013-03-28 10:30:00,
2013-03-28 06:35:00,31.1,28.0,30.21,WNW,296,0.0,0.0,88,0.00,,,0.00,Wunderground v.1.15,2013-03-28 10:35:00,
2013-03-28 06:45:00,30.9,27.8,30.21,WNW,296,0.0,0.0,88,0.00,,,0.00,Wunderground v.1.15,2013-03-28 10:45:00,
2013-03-28 06:50:00,30.8,27.9,30.21,WNW,296,0.0,0.0,89,0.00,,,0.00,Wunderground v.1.15,2013-03-28 10:50:00,
2013-03-28 07:00:00,30.5,27.6,30.22,WNW,296,0.0,0.0,89,0.00,,,0.00,Wunderground v.1.15,2013-03-28 11:00:00,
2013-03-28 07:10:00,30.4,27.8,30.22,WNW,296,0.0,0.0,90,0.00,,,0.00,Wunderground v.1.15,2013-03-28 11:10:00,
2013-03-28 07:15:00,30.4,27.8,30.22,WNW,296,0.0,0.0,90,0.00,,,0.00,Wunderground v.1.15,2013-03-28 11:15:00,
2013-03-28 07:25:00,30.4,27.8,30.22,WNW,296,0.0,0.0,90,0.00,,,0.00,Wunderground v.1.15,2013-03-28 11:25:00,
2013-03-28 07:30:00,30.4,27.8,30.22,WNW,296,0.0,0.0,90,0.00,,,0.00,Wunderground v.1.15,2013-03-28 11:30:00,
2013-03-28 07:40:00,30.5,28.2,30.22,WNW,296,0.0,0.0,91,0.00,,,0.00,Wunderground v.1.15,2013-03-28 11:40:00,
2013-03-28 07:45:00,30.7,28.4,30.23,WNW,296,0.0,0.0,91,0.00,,,0.00,Wunderground v.1.15,2013-03-28 11:45:00,
2013-03-28 07:55:00,31.5,29.2,30.23,WNW,296,0.0,0.0,91,0.00,,,0.00,Wunderground v.1.15,2013-03-28 11:55:00,
2013-03-28 08:00:00,32.0,29.7,30.23,WNW,296,0.0,0.0,91,0.00,,,0.00,Wunderground v.1.15,2013-03-28 12:00:00,
2013-03-28 08:10:00,33.3,29.6,30.23,WNW,296,0.0,1.0,86,0.00,,,0.00,Wunderground v.1.15,2013-03-28 12:10:00,
2013-03-28 08:20:00,35.1,29.9,30.23,WNW,296,1.0,1.0,81,0.00,,,0.00,Wunderground v.1.15,2013-03-28 12:20:00,
2013-03-28 08:30:00,36.7,29.8,30.23,WNW,282,2.0,2.0,76,0.00,,,0.00,Wunderground v.1.15,2013-03-28 12:30:00,
2013-03-28 08:40:00,38.2,29.6,30.24,WSW,250,1.0,1.0,71,0.00,,,0.00,Wunderground v.1.15,2013-03-28 12:40:00,
2013-03-28 08:45:00,38.9,29.6,30.24,West,277,1.0,2.0,69,0.00,,,0.00,Wunderground v.1.15,2013-03-28 12:45:00,
2013-03-28 08:55:00,40.3,30.2,30.24,NW,323,1.0,2.0,67,0.00,,,0.00,Wunderground v.1.15,2013-03-28 12:55:00,
2013-03-28 09:00:00,40.9,30.0,30.24,NW,308,1.0,1.0,65,0.00,,,0.00,Wunderground v.1.15,2013-03-28 13:00:00,
2013-03-28 09:10:00,42.0,30.3,30.24,NW,317,1.0,1.0,63,0.00,,,0.00,Wunderground v.1.15,2013-03-28 13:10:00,
2013-03-28 09:20:00,42.9,29.5,30.24,West,273,2.0,2.0,59,0.00,,,0.00,Wunderground v.1.15,2013-03-28 13:20:00,
2013-03-28 09:25:00,43.4,29.6,30.24,WNW,300,2.0,2.0,58,0.00,,,0.00,Wunderground v.1.15,2013-03-28 13:25:00,
2013-03-28 09:35:00,44.3,29.6,30.24,West,268,2.0,5.0,56,0.00,,,0.00,Wunderground v.1.15,2013-03-28 13:35:00,
2013-03-28 09:45:00,45.0,28.9,30.24,WSW,250,3.0,3.0,53,0.00,,,0.00,Wunderground v.1.15,2013-03-28 13:45:00,
2013-03-28 09:50:00,45.3,28.7,30.24,NW,311,2.0,2.0,52,0.00,,,0.00,Wunderground v.1.15,2013-03-28 13:50:00,
2013-03-28 10:00:00,46.1,29.0,30.23,WNW,302,2.0,3.0,51,0.00,,,0.00,Wunderground v.1.15,2013-03-28 14:00:00,
2013-03-28 10:05:00,46.4,29.2,30.23,WNW,300,2.0,7.0,51,0.00,,,0.00,Wunderground v.1.15,2013-03-28 14:05:00,
2013-03-28 10:15:00,47.0,28.8,30.24,WNW,288,2.0,2.0,49,0.00,,,0.00,Wunderground v.1.15,2013-03-28 14:15:00,
2013-03-28 10:20:00,47.3,28.6,30.24,WSW,256,3.0,4.0,48,0.00,,,0.00,Wunderground v.1.15,2013-03-28 14:20:00,
2013-03-28 10:30:00,47.7,28.4,30.24,North,360,2.0,2.0,47,0.00,,,0.00,Wunderground v.1.15,2013-03-28 14:30:00,
2013-03-28 10:40:00,48.4,29.1,30.24,NNW,329,2.0,2.0,47,0.00,,,0.00,Wunderground v.1.15,2013-03-28 14:40:00,
2013-03-28 10:45:00,48.8,28.4,30.24,WNW,292,2.0,2.0,45,0.00,,,0.00,Wunderground v.1.15,2013-03-28 14:45:00,
2013-03-28 10:55:00,49.4,27.8,30.24,WNW,298,2.0,2.0,43,0.00,,,0.00,Wunderground v.1.15,2013-03-28 14:55:00,
2013-03-28 11:00:00,50.0,27.8,30.24,WNW,299,2.0,2.0,42,0.00,,,0.00,Wunderground v.1.15,2013-03-28 15:00:00,
2013-03-28 11:10:00,50.5,27.7,30.24,WSW,250,3.0,3.0,41,0.00,,,0.00,Wunderground v.1.15,2013-03-28 15:10:00,
2013-03-28 11:20:00,50.6,27.7,30.24,West,259,3.0,3.0,41,0.00,,,0.00,Wunderground v.1.15,2013-03-28 15:20:00,
2013-03-28 11:25:00,50.5,27.0,30.24,NE,40,3.0,3.0,40,0.00,,,0.00,Wunderground v.1.15,2013-03-28 15:25:00,
2013-03-28 11:35:00,51.3,27.8,30.24,SW,214,3.0,3.0,40,0.00,,,0.00,Wunderground v.1.15,2013-03-28 15:35:00,
2013-03-28 11:45:00,52.5,27.6,30.24,WNW,303,3.0,3.0,38,0.00,,,0.00,Wunderground v.1.15,2013-03-28 15:45:00,
2013-03-28 11:55:00,52.0,26.5,30.23,WSW,248,4.0,7.0,37,0.00,,,0.00,Wunderground v.1.15,2013-03-28 15:55:00,
2013-03-28 12:00:00,51.8,27.6,30.23,West,273,4.0,6.0,39,0.00,,,0.00,Wunderground v.1.15,2013-03-28 16:00:00,
2013-03-28 12:10:00,52.9,28.0,30.22,West,280,3.0,7.0,38,0.00,,,0.00,Wunderground v.1.15,2013-03-28 16:10:00,
2013-03-28 12:15:00,53.3,27.0,30.22,WNW,290,3.0,7.0,36,0.00,,,0.00,Wunderground v.1.15,2013-03-28 16:15:00,
2013-03-28 12:25:00,53.6,26.6,30.22,NW,306,3.0,3.0,35,0.00,,,0.00,Wunderground v.1.15,2013-03-28 16:25:00,
2013-03-28 12:35:00,53.5,27.8,30.21,WNW,298,4.0,5.0,37,0.00,,,0.00,Wunderground v.1.15,2013-03-28 16:35:00,
2013-03-28 12:40:00,54.4,28.6,30.21,North,355,4.0,4.0,37,0.00,,,0.00,Wunderground v.1.15,2013-03-28 16:40:00,
2013-03-28 12:50:00,54.4,27.3,30.21,WNW,286,3.0,3.0,35,0.00,,,0.00,Wunderground v.1.15,2013-03-28 16:50:00,
2013-03-28 13:00:00,54.0,26.2,30.21,NW,304,4.0,4.0,34,0.00,,,0.00,Wunderground v.1.15,2013-03-28 17:00:00,
2013-03-28 13:05:00,53.6,26.6,30.20,NW,304,4.0,8.0,35,0.00,,,0.00,Wunderground v.1.15,2013-03-28 17:05:00,
2013-03-28 13:15:00,54.4,27.3,30.20,West,266,4.0,4.0,35,0.00,,,0.00,Wunderground v.1.15,2013-03-28 17:15:00,
2013-03-28 13:25:00,54.9,27.7,30.19,WNW,296,4.0,6.0,35,0.00,,,0.00,Wunderground v.1.15,2013-03-28 17:25:00,
2013-03-28 13:30:00,55.3,26.7,30.19,WNW,298,4.0,4.0,33,0.00,,,0.00,Wunderground v.1.15,2013-03-28 17:30:00,
2013-03-28 13:40:00,54.8,26.2,30.19,West,277,4.0,4.0,33,0.00,,,0.00,Wunderground v.1.15,2013-03-28 17:40:00,
2013-03-28 13:45:00,54.7,26.8,30.19,NW,306,5.0,5.0,34,0.00,,,0.00,Wunderground v.1.15,2013-03-28 17:45:00,
2013-03-28 13:55:00,55.8,27.1,30.19,West,273,3.0,6.0,33,0.00,,,0.00,Wunderground v.1.15,2013-03-28 17:55:00,
2013-03-28 14:00:00,55.9,27.2,30.18,West,271,4.0,4.0,33,0.00,,,0.00,Wunderground v.1.15,2013-03-28 18:00:00,
2013-03-28 14:10:00,56.2,26.7,30.18,West,265,4.0,5.0,32,0.00,,,0.00,Wunderground v.1.15,2013-03-28 18:10:00,
2013-03-28 14:15:00,56.1,26.6,30.18,NW,321,4.0,9.0,32,0.00,,,0.00,Wunderground v.1.15,2013-03-28 18:15:00,
2013-03-28 14:25:00,56.0,25.8,30.17,NW,311,5.0,5.0,31,0.00,,,0.00,Wunderground v.1.15,2013-03-28 18:25:00,
2013-03-28 14:30:00,56.2,26.7,30.17,West,277,6.0,11.0,32,0.00,,,0.00,Wunderground v.1.15,2013-03-28 18:30:00,
2013-03-28 14:40:00,56.4,27.6,30.17,NW,318,6.0,6.0,33,0.00,,,0.00,Wunderground v.1.15,2013-03-28 18:40:00,
2013-03-28 14:50:00,56.2,27.4,30.16,West,263,4.0,5.0,33,0.00,,,0.00,Wunderground v.1.15,2013-03-28 18:50:00,
2013-03-28 15:00:00,56.8,27.2,30.16,NNW,333,4.0,4.0,32,0.00,,,0.00,Wunderground v.1.15,2013-03-28 19:00:00,
2013-03-28 15:10:00,57.6,27.9,30.16,WNW,294,5.0,5.0,32,0.00,,,0.00,Wunderground v.1.15,2013-03-28 19:10:00,
2013-03-28 15:20:00,57.6,26.4,30.15,West,278,5.0,7.0,30,0.00,,,0.00,Wunderground v.1.15,2013-03-28 19:20:00,
2013-03-28 15:30:00,57.9,27.4,30.15,WNW,282,5.0,5.0,31,0.00,,,0.00,Wunderground v.1.15,2013-03-28 19:30:00,
2013-03-28 15:40:00,58.7,27.3,30.15,WSW,255,3.0,5.0,30,0.00,,,0.00,Wunderground v.1.15,2013-03-28 19:40:00,
2013-03-28 15:50:00,58.3,26.1,30.14,West,279,4.0,4.0,29,0.00,,,0.00,Wunderground v.1.15,2013-03-28 19:50:00,
2013-03-28 15:55:00,58.6,25.6,30.14,WSW,246,4.0,5.0,28,0.00,,,0.00,Wunderground v.1.15,2013-03-28 19:55:00,
2013-03-28 16:05:00,58.4,26.2,30.14,WSW,247,5.0,5.0,29,0.00,,,0.00,Wunderground v.1.15,2013-03-28 20:05:00,
2013-03-28 16:10:00,58.4,26.2,30.14,West,270,5.0,5.0,29,0.00,,,0.00,Wunderground v.1.15,2013-03-28 20:10:00,
2013-03-28 16:20:00,58.6,26.4,30.14,West,271,4.0,4.0,29,0.00,,,0.00,Wunderground v.1.15,2013-03-28 20:20:00,
2013-03-28 16:25:00,58.9,27.5,30.14,West,278,3.0,5.0,30,0.00,,,0.00,Wunderground v.1.15,2013-03-28 20:25:00,
2013-03-28 16:35:00,59.1,28.5,30.14,SSW,210,4.0,8.0,31,0.00,,,0.00,Wunderground v.1.15,2013-03-28 20:35:00,
2013-03-28 16:45:00,59.2,27.7,30.13,WSW,248,4.0,5.0,30,0.00,,,0.00,Wunderground v.1.15,2013-03-28 20:45:00,
2013-03-28 16:55:00,58.9,26.7,30.13,WSW,240,4.0,5.0,29,0.00,,,0.00,Wunderground v.1.15,2013-03-28 20:55:00,
2013-03-28 17:00:00,59.0,26.8,30.13,West,260,4.0,7.0,29,0.00,,,0.00,Wunderground v.1.15,2013-03-28 21:00:00,
2013-03-28 17:10:00,58.7,25.6,30.13,WSW,246,5.0,6.0,28,0.00,,,0.00,Wunderground v.1.15,2013-03-28 21:10:00,
2013-03-28 17:20:00,58.9,26.7,30.13,NW,306,3.0,4.0,29,0.00,,,0.00,Wunderground v.1.15,2013-03-28 21:20:00,
2013-03-28 17:30:00,59.1,26.8,30.13,NW,315,3.0,3.0,29,0.00,,,0.00,Wunderground v.1.15,2013-03-28 21:30:00,
2013-03-28 17:40:00,58.7,26.5,30.14,West,279,4.0,4.0,29,0.00,,,0.00,Wunderground v.1.15,2013-03-28 21:40:00,
2013-03-28 17:50:00,58.7,25.6,30.13,NNW,335,4.0,6.0,28,0.00,,,0.00,Wunderground v.1.15,2013-03-28 21:50:00,
2013-03-28 17:55:00,58.3,25.3,30.13,West,261,5.0,6.0,28,0.00,,,0.00,Wunderground v.1.15,2013-03-28 21:55:00,
2013-03-28 18:05:00,58.5,26.3,30.13,NW,315,3.0,4.0,29,0.00,,,0.00,Wunderground v.1.15,2013-03-28 22:05:00,
2013-03-28 18:10:00,58.6,26.4,30.14,NW,313,3.0,3.0,29,0.00,,,0.00,Wunderground v.1.15,2013-03-28 22:10:00,
2013-03-28 18:20:00,58.6,27.2,30.14,NW,306,2.0,2.0,30,0.00,,,0.00,Wunderground v.1.15,2013-03-28 22:20:00,
2013-03-28 18:25:00,58.6,25.6,30.14,WNW,290,2.0,3.0,28,0.00,,,0.00,Wunderground v.1.15,2013-03-28 22:25:00,
2013-03-28 18:35:00,58.1,26.8,30.14,WNW,292,3.0,3.0,30,0.00,,,0.00,Wunderground v.1.15,2013-03-28 22:35:00,
2013-03-28 18:40:00,58.0,26.7,30.14,WNW,300,3.0,3.0,30,0.00,,,0.00,Wunderground v.1.15,2013-03-28 22:40:00,
2013-03-28 18:50:00,57.9,26.6,30.15,WNW,302,2.0,2.0,30,0.00,,,0.00,Wunderground v.1.15,2013-03-28 22:50:00,
2013-03-28 19:00:00,57.3,26.1,30.15,WNW,282,2.0,4.0,30,0.00,,,0.00,Wunderground v.1.15,2013-03-28 23:00:00,
2013-03-28 19:10:00,56.5,25.4,30.15,NW,326,2.0,2.0,30,0.00,,,0.00,Wunderground v.1.15,2013-03-28 23:10:00,
2013-03-28 19:15:00,56.0,25.0,30.16,WSW,256,3.0,3.0,30,0.00,,,0.00,Wunderground v.1.15,2013-03-28 23:15:00,
2013-03-28 19:25:00,55.1,25.7,30.16,West,281,2.0,2.0,32,0.00,,,0.00,Wunderground v.1.15,2013-03-28 23:25:00,
2013-03-28 19:35:00,54.3,27.2,30.16,West,281,0.0,1.0,35,0.00,,,0.00,Wunderground v.1.15,2013-03-28 23:35:00,
2013-03-28 19:45:00,53.5,29.1,30.17,West,281,0.0,1.0,39,0.00,,,0.00,Wunderground v.1.15,2013-03-28 23:45:00,
2013-03-28 19:55:00,52.5,26.9,30.18,West,281,0.0,0.0,37,0.00,,,0.00,Wunderground v.1.15,2013-03-28 23:55:00,
2013-03-28 20:00:00,52.1,27.9,30.18,West,281,0.0,0.0,39,0.00,,,0.00,Wunderground v.1.15,2013-03-29 00:00:00,
2013-03-28 20:10:00,51.3,30.1,30.18,West,281,0.0,0.0,44,0.00,,,0.00,Wunderground v.1.15,2013-03-29 00:10:00,
2013-03-28 20:15:00,50.7,29.0,30.18,West,281,0.0,0.0,43,0.00,,,0.00,Wunderground v.1.15,2013-03-29 00:15:00,
2013-03-28 20:25:00,49.9,32.0,30.19,West,281,0.0,0.0,50,0.00,,,0.00,Wunderground v.1.15,2013-03-29 00:25:00,
2013-03-28 20:35:00,48.8,29.4,30.19,West,281,0.0,0.0,47,0.00,,,0.00,Wunderground v.1.15,2013-03-29 00:35:00,
2013-03-28 20:45:00,47.9,29.6,30.20,West,281,0.0,0.0,49,0.00,,,0.00,Wunderground v.1.15,2013-03-29 00:45:00,
2013-03-28 20:55:00,47.0,31.2,30.20,West,281,0.0,0.0,54,0.00,,,0.00,Wunderground v.1.15,2013-03-29 00:55:00,
2013-03-28 21:00:00,46.5,31.6,30.20,West,281,0.0,0.0,56,0.00,,,0.00,Wunderground v.1.15,2013-03-29 01:00:00,
2013-03-28 21:10:00,45.6,31.2,30.20,West,281,0.0,0.0,57,0.00,,,0.00,Wunderground v.1.15,2013-03-29 01:10:00,
2013-03-28 21:20:00,44.9,31.4,30.21,West,281,0.0,0.0,59,0.00,,,0.00,Wunderground v.1.15,2013-03-29 01:20:00,
2013-03-28 21:30:00,44.2,30.8,30.21,West,281,0.0,0.0,59,0.00,,,0.00,Wunderground v.1.15,2013-03-29 01:30:00,
2013-03-28 21:35:00,43.9,30.9,30.21,West,281,0.0,0.0,60,0.00,,,0.00,Wunderground v.1.15,2013-03-29 01:35:00,
2013-03-28 21:45:00,43.3,31.1,30.22,West,281,0.0,0.0,62,0.00,,,0.00,Wunderground v.1.15,2013-03-29 01:45:00,
2013-03-28 21:55:00,42.6,30.9,30.22,West,281,0.0,0.0,63,0.00,,,0.00,Wunderground v.1.15,2013-03-29 01:55:00,
2013-03-28 22:00:00,42.2,31.3,30.22,West,281,0.0,0.0,65,0.00,,,0.00,Wunderground v.1.15,2013-03-29 02:00:00,
2013-03-28 22:10:00,41.7,31.5,30.22,West,281,0.0,0.0,67,0.00,,,0.00,Wunderground v.1.15,2013-03-29 02:10:00,
2013-03-28 22:20:00,41.2,30.7,30.23,West,281,0.0,0.0,66,0.00,,,0.00,Wunderground v.1.15,2013-03-29 02:20:00,
2013-03-28 22:30:00,40.6,30.5,30.23,West,281,0.0,0.0,67,0.00,,,0.00,Wunderground v.1.15,2013-03-29 02:30:00,
2013-03-28 22:40:00,40.2,31.2,30.23,West,281,0.0,0.0,70,0.00,,,0.00,Wunderground v.1.15,2013-03-29 02:40:00,
2013-03-28 22:45:00,40.0,31.0,30.23,West,281,0.0,0.0,70,0.00,,,0.00,Wunderground v.1.15,2013-03-29 02:45:00,
2013-03-28 22:55:00,39.5,30.9,30.24,West,281,0.0,0.0,71,0.00,,,0.00,Wunderground v.1.15,2013-03-29 02:55:00,
2013-03-28 23:00:00,39.3,30.7,30.24,West,281,0.0,0.0,71,0.00,,,0.00,Wunderground v.1.15,2013-03-29 03:00:00,
2013-03-28 23:10:00,38.8,29.8,30.24,West,281,0.0,0.0,70,0.00,,,0.00,Wunderground v.1.15,2013-03-29 03:10:00,
2013-03-28 23:15:00,38.6,30.0,30.24,West,281,0.0,0.0,71,0.00,,,0.00,Wunderground v.1.15,2013-03-29 03:15:00,
2013-03-28 23:20:00,38.4,30.2,30.24,West,281,0.0,0.0,72,0.00,,,0.00,Wunderground v.1.15,2013-03-29 03:20:00,
2013-03-28 23:30:00,38.2,30.6,30.24,West,281,0.0,0.0,74,0.00,,,0.00,Wunderground v.1.15,2013-03-29 03:30:00,
2013-03-28 23:35:00,38.0,30.8,30.24,West,281,0.0,0.0,75,0.00,,,0.00,Wunderground v.1.15,2013-03-29 03:35:00,
2013-03-28 23:45:00,37.7,30.5,30.24,West,281,0.0,0.0,75,0.00,,,0.00,Wunderground v.1.15,2013-03-29 03:45:00,
2013-03-28 23:50:00,37.5,30.6,30.24,West,281,0.0,0.0,76,0.00,,,0.00,Wunderground v.1.15,2013-03-29 03:50:00,